This is the latest recevied weather packets stored in our database for station/object DB0WUN-13. If no packets are shown the sender has not sent any weather packets the latest 10 day(s).
| Time | Temp. | Humidity | Pressure | Rain* | Wind** | Luminosity | Snow |
|---|---|---|---|---|---|---|---|
| 1777101319 | 12.22° C | 40% | 1017.1 hPa | 0 mm | - | 508 W/m² | - |
| 1777101260 | 12.22° C | 40% | 1017.1 hPa | 0 mm | - | 501 W/m² | - |
| 1777101201 | 12.22° C | 39% | 1017.1 hPa | 0 mm | - | 501 W/m² | - |
| 1777101139 | 12.22° C | 38% | 1017.1 hPa | 0 mm | - | 497 W/m² | - |
| 1777101078 | 12.22° C | 41% | 1017.1 hPa | 0 mm | - | 496 W/m² | - |
| 1777101020 | 12.22° C | 40% | 1017.1 hPa | 0 mm | - | 492 W/m² | - |
| 1777100960 | 12.22° C | 41% | 1017.1 hPa | 0 mm | - | 490 W/m² | - |
| 1777100898 | 12.22° C | 43% | 1017 hPa | 0 mm | - | 487 W/m² | - |
| 1777100840 | 11.67° C | 43% | 1017.1 hPa | 0 mm | - | 482 W/m² | - |
| 1777100792 | 11.67° C | 41% | 1017.1 hPa | 0 mm | - | 478 W/m² | - |
| 1777100753 | 11.67° C | 40% | 1017.1 hPa | 0 mm | - | 476 W/m² | - |
| 1777100698 | 11.67° C | 39% | 1017.1 hPa | 0 mm | - | 473 W/m² | - |
| 1777100660 | 11.67° C | 40% | 1017.1 hPa | 0 mm | - | 469 W/m² | - |
| 1777100624 | 11.67° C | 38% | 1017 hPa | 0 mm | - | 468 W/m² | - |
| 1777100585 | 11.67° C | 39% | 1017.1 hPa | 0 mm | - | 462 W/m² | - |
| 1777100555 | 11.67° C | 39% | 1017.1 hPa | 0 mm | - | 461 W/m² | - |
| 1777100359 | 11.67° C | 38% | 1017.1 hPa | 0 mm | - | 459 W/m² | - |
| 1777100295 | 11.67° C | 42% | 1017.1 hPa | 0 mm | - | 457 W/m² | - |
| 1777100231 | 11.67° C | 40% | 1017.1 hPa | 0 mm | - | 455 W/m² | - |
| 1777100173 | 11.67° C | 39% | 1017.1 hPa | 0 mm | - | 450 W/m² | - |
| 1777100118 | 11.67° C | 41% | 1017.2 hPa | 0 mm | - | 446 W/m² | - |
| 1777100051 | 11.67° C | 40% | 1017.1 hPa | 0 mm | - | 441 W/m² | - |
| 1777099993 | 11.67° C | 39% | 1017.1 hPa | 0 mm | - | 438 W/m² | - |
| 1777099933 | 11.67° C | 40% | 1017.1 hPa | 0 mm | - | 438 W/m² | - |
| 1777099869 | 11.67° C | 42% | 1017.1 hPa | 0 mm | - | 434 W/m² | - |
* Rain latest hour (hover to see other rain measurements)
** Current wind speed in m/s (hover to see current wind gust speed)